EN

Hourly Weather Alwaye

Today, 19 January, Tuesday

Time Temperature Precipitation Wind Pressure Humidity
00:00 +25°C° 0 mm 1 mps 757 mmHg 77%
01:00 +24°C° 0 mm 1 mps 757 mmHg 77%
02:00 +23°C° 0 mm 1 mps 757 mmHg 77%
03:00 +23°C° 0 mm 1 mps 757 mmHg 77%
04:00 +23°C° 0 mm 1 mps 757 mmHg 76%
05:00 +23°C° 0 mm 1 mps 757 mmHg 77%
06:00 +24°C° 0 mm 1 mps 757 mmHg 74%
07:00 +25°C° 0 mm 1 mps 758 mmHg 72%
08:00 +26°C° 0 mm 1 mps 759 mmHg 69%
09:00 +29°C° 0 mm 1 mps 758 mmHg 62%
10:00 +31°C° 0 mm 1 mps 758 mmHg 55%
11:00 +32°C° 0 mm 0 mps 759 mmHg 47%
12:00 +34°C° 0 mm 1 mps 758 mmHg 46%
13:00 +35°C° 0 mm 2 mps 757 mmHg 46%
14:00 +35°C° 0 mm 2 mps 756 mmHg 45%
15:00 +34°C° 0 mm 2 mps 756 mmHg 51%
16:00 +32°C° 0 mm 2 mps 756 mmHg 58%
17:00 +31°C° 0 mm 2 mps 756 mmHg 64%
18:00 +29°C° 0 mm 2 mps 756 mmHg 71%
19:00 +28°C° 0 mm 2 mps 757 mmHg 78%
20:00 +26°C° 0 mm 1 mps 757 mmHg 85%
21:00 +26°C° 0 mm 1 mps 757 mmHg 85%
22:00 +26°C° 0 mm 1 mps 758 mmHg 85%
23:00 +25°C° 0 mm 1 mps 758 mmHg 85%

Tomorrow, 20 January, Wednesday

Time Temperature Precipitation Wind Pressure Humidity
00:00 +25°C° 0 mm 1 mps 757 mmHg 85%
01:00 +25°C° 0 mm 1 mps 757 mmHg 84%
02:00 +24°C° 0 mm 1 mps 757 mmHg 83%
03:00 +24°C° 0 mm 1 mps 757 mmHg 81%
04:00 +24°C° 0 mm 1 mps 757 mmHg 79%
05:00 +24°C° 0 mm 1 mps 757 mmHg 77%
06:00 +25°C° 0 mm 1 mps 758 mmHg 73%
07:00 +26°C° 0 mm 1 mps 758 mmHg 69%
08:00 +27°C° 0 mm 1 mps 759 mmHg 65%
09:00 +29°C° 0 mm 1 mps 759 mmHg 59%
10:00 +30°C° 0 mm 0 mps 759 mmHg 53%
11:00 +33°C° 0 mm 0 mps 759 mmHg 47%
12:00 +34°C° 0 mm 1 mps 758 mmHg 46%
13:00 +35°C° 0 mm 2 mps 757 mmHg 46%
14:00 +35°C° 0 mm 3 mps 756 mmHg 46%
15:00 +34°C° 0 mm 2 mps 756 mmHg 52%
16:00 +32°C° 0 mm 2 mps 757 mmHg 58%
17:00 +30°C° 0 mm 2 mps 757 mmHg 64%
18:00 +29°C° 0 mm 2 mps 757 mmHg 69%
19:00 +28°C° 0 mm 1 mps 758 mmHg 75%
20:00 +27°C° 0 mm 1 mps 758 mmHg 81%
21:00 +27°C° 0 mm 1 mps 758 mmHg 83%
22:00 +26°C° 0 mm 1 mps 758 mmHg 84%
23:00 +26°C° 0 mm 1 mps 758 mmHg 85%

Day after tomorrow, 21 January, Thursday

Time Temperature Precipitation Wind Pressure Humidity
00:00 +26°C° 0 mm 1 mps 758 mmHg 86%
01:00 +25°C° 0 mm 1 mps 757 mmHg 86%
02:00 +25°C° 0 mm 1 mps 757 mmHg 87%
03:00 +25°C° 0 mm 1 mps 757 mmHg 87%
04:00 +25°C° 0 mm 1 mps 757 mmHg 87%
05:00 +25°C° 0 mm 1 mps 757 mmHg 87%
06:00 +26°C° 0 mm 1 mps 757 mmHg 82%
07:00 +27°C° 0 mm 1 mps 758 mmHg 77%
08:00 +28°C° 0 mm 1 mps 758 mmHg 72%
09:00 +30°C° 0 mm 1 mps 758 mmHg 65%
10:00 +33°C° 0 mm 1 mps 758 mmHg 58%
11:00 +35°C° 0 mm 1 mps 758 mmHg 51%
12:00 +35°C° 0 mm 1 mps 757 mmHg 52%
13:00 +35°C° 0 mm 2 mps 756 mmHg 52%
14:00 +35°C° 0 mm 2 mps 756 mmHg 53%
15:00 +34°C° 0.1 mm 2 mps 756 mmHg 59%
16:00 +32°C° 0.1 mm 2 mps 756 mmHg 64%
17:00 +31°C° 0.1 mm 2 mps 756 mmHg 70%
18:00 +30°C° 0 mm 2 mps 756 mmHg 75%
19:00 +29°C° 0 mm 1 mps 757 mmHg 81%
20:00 +27°C° 0 mm 1 mps 757 mmHg 86%
21:00 +27°C° 0 mm 1 mps 757 mmHg 87%
22:00 +27°C° 0 mm 1 mps 758 mmHg 89%
23:00 +26°C° 0 mm 1 mps 758 mmHg 90%

22 January, Friday

Time Temperature Precipitation Wind Pressure Humidity
00:00 +26°C° 0 mm 1 mps 757 mmHg 91%
01:00 +26°C° 0 mm 1 mps 757 mmHg 91%
02:00 +26°C° 0 mm 1 mps 756 mmHg 92%
03:00 +25°C° 0 mm 1 mps 757 mmHg 92%
04:00 +25°C° 0 mm 1 mps 757 mmHg 92%
05:00 +25°C° 0 mm 1 mps 757 mmHg 92%
06:00 +26°C° 0 mm 1 mps 757 mmHg 86%
07:00 +27°C° 0 mm 1 mps 758 mmHg 81%
08:00 +28°C° 0 mm 1 mps 758 mmHg 76%
09:00 +31°C° 0 mm 1 mps 758 mmHg 68%
10:00 +33°C° 0 mm 1 mps 758 mmHg 60%
11:00 +35°C° 0 mm 1 mps 758 mmHg 52%
12:00 +35°C° 0 mm 1 mps 757 mmHg 53%
13:00 +35°C° 0 mm 2 mps 756 mmHg 53%
14:00 +35°C° 0 mm 3 mps 755 mmHg 54%
15:00 +34°C° 0 mm 3 mps 755 mmHg 59%
16:00 +32°C° 0 mm 2 mps 755 mmHg 64%
17:00 +31°C° 0 mm 2 mps 755 mmHg 69%
18:00 +30°C° 0 mm 2 mps 755 mmHg 75%
19:00 +29°C° 0 mm 1 mps 756 mmHg 81%
20:00 +27°C° 0 mm 1 mps 757 mmHg 86%
21:00 +27°C° 0 mm 1 mps 757 mmHg 87%
22:00 +27°C° 0 mm 1 mps 757 mmHg 88%
23:00 +26°C° 0 mm 1 mps 757 mmHg 88%

23 January, Saturday

Time Temperature Precipitation Wind Pressure Humidity
00:00 +26°C° 0 mm 1 mps 757 mmHg 88%
01:00 +26°C° 0 mm 1 mps 757 mmHg 88%
02:00 +25°C° 0 mm 1 mps 756 mmHg 88%
03:00 +25°C° 0 mm 1 mps 756 mmHg 87%
04:00 +25°C° 0 mm 1 mps 756 mmHg 86%
05:00 +25°C° 0 mm 1 mps 757 mmHg 85%
06:00 +25°C° 0 mm 1 mps 757 mmHg 80%
07:00 +26°C° 0 mm 1 mps 758 mmHg 75%
08:00 +27°C° 0 mm 1 mps 758 mmHg 70%
09:00 +30°C° 0 mm 1 mps 758 mmHg 63%
10:00 +33°C° 0 mm 1 mps 758 mmHg 55%
11:00 +34°C° 0 mm 0 mps 758 mmHg 47%
12:00 +36°C° 0 mm 1 mps 757 mmHg 46%
13:00 +37°C° 0 mm 2 mps 757 mmHg 44%
14:00 +36°C° 0 mm 3 mps 756 mmHg 43%
15:00 +35°C° 0 mm 3 mps 756 mmHg 52%
16:00 +33°C° 0 mm 3 mps 755 mmHg 60%
17:00 +31°C° 0 mm 3 mps 755 mmHg 69%
18:00 +30°C° 0 mm 2 mps 756 mmHg 75%
19:00 +28°C° 0 mm 1 mps 756 mmHg 81%
20:00 +27°C° 0 mm 1 mps 757 mmHg 88%
21:00 +27°C° 0.1 mm 1 mps 757 mmHg 88%
22:00 +26°C° 0.1 mm 1 mps 757 mmHg 88%
23:00 +26°C° 0.1 mm 1 mps 757 mmHg 88%

24 January, Sunday

Time Temperature Precipitation Wind Pressure Humidity
00:00 +26°C° 0.1 mm 1 mps 757 mmHg 88%
01:00 +25°C° 0.1 mm 1 mps 756 mmHg 89%
02:00 +25°C° 0.1 mm 1 mps 756 mmHg 89%
03:00 +25°C° 0 mm 1 mps 756 mmHg 89%
04:00 +24°C° 0 mm 1 mps 756 mmHg 89%
05:00 +24°C° 0 mm 1 mps 757 mmHg 89%
06:00 +25°C° 0 mm 1 mps 757 mmHg 84%
07:00 +26°C° 0 mm 1 mps 758 mmHg 79%
08:00 +27°C° 0 mm 1 mps 758 mmHg 74%
09:00 +30°C° 0 mm 1 mps 758 mmHg 65%
10:00 +31°C° 0 mm 0 mps 758 mmHg 55%
11:00 +34°C° 0 mm 0 mps 758 mmHg 46%
12:00 +35°C° 0 mm 1 mps 757 mmHg 45%
13:00 +36°C° 0 mm 2 mps 757 mmHg 45%
14:00 +36°C° 0 mm 3 mps 756 mmHg 45%
15:00 +34°C° 0 mm 3 mps 756 mmHg 52%
16:00 +33°C° 0 mm 3 mps 756 mmHg 59%
17:00 +30°C° 0 mm 3 mps 756 mmHg 67%
18:00 +29°C° 0 mm 2 mps 757 mmHg 73%
19:00 +28°C° 0 mm 1 mps 757 mmHg 79%
20:00 +27°C° 0 mm 1 mps 758 mmHg 85%
21:00 +26°C° 0 mm 1 mps 758 mmHg 86%
22:00 +26°C° 0 mm 1 mps 758 mmHg 87%
23:00 +26°C° 0 mm 1 mps 758 mmHg 88%
Show more